Time,TemperatureF,DewpointF,PressureIn,WindDirection,WindDirectionDegrees,WindSpeedMPH,WindSpeedGustMPH,Humidity,HourlyPrecipIn,Conditions,Clouds,dailyrainin,SoftwareType,DateUTC
2013-03-02 00:00:00,33.6,27.5,29.94,WNW,292,3.0,11.0,78,0.00,,OVC,0.00,VWS V14.01,2013-03-02 05:00:00,
2013-03-02 01:00:00,33.2,28.0,29.94,West,270,3.0,15.0,81,0.00,,OVC,0.00,VWS V14.01,2013-03-02 06:00:00,
2013-03-02 02:00:00,32.6,28.6,29.93,WSW,248,3.0,15.0,85,0.00,,OVC,0.00,VWS V14.01,2013-03-02 07:00:00,
2013-03-02 03:00:00,31.9,28.5,29.93,SW,225,3.0,17.0,87,0.00,,OVC,0.00,VWS V14.01,2013-03-02 08:00:00,
2013-03-02 04:00:00,31.3,28.4,29.91,WSW,248,3.0,13.0,89,0.00,,OVC,0.00,VWS V14.01,2013-03-02 09:00:00,
2013-03-02 05:00:00,30.8,28.2,29.91,SW,225,3.0,12.0,90,0.00,,OVC,0.00,VWS V14.01,2013-03-02 10:00:00,
2013-03-02 06:00:00,30.8,28.0,29.90,SW,225,3.0,15.0,89,0.00,,OVC,0.00,VWS V14.01,2013-03-02 11:00:00,
2013-03-02 07:00:00,30.5,27.9,29.90,SSW,202,3.0,13.0,90,0.00,,OVC,0.00,VWS V14.01,2013-03-02 12:00:00,
2013-03-02 08:00:00,30.3,27.5,29.92,SSW,202,4.0,17.0,89,0.00,,OVC,0.00,VWS V14.01,2013-03-02 13:00:00,
2013-03-02 09:00:00,31.3,27.0,29.92,SW,225,4.0,15.0,84,0.00,,OVC,0.00,VWS V14.01,2013-03-02 14:00:00,
2013-03-02 10:00:00,33.1,27.3,29.92,WSW,248,3.0,14.0,79,0.00,,OVC,0.00,VWS V14.01,2013-03-02 15:00:00,
2013-03-02 11:00:00,38.6,26.7,29.92,NW,316,3.0,7.0,62,2.00,,OVC,0.00,VWS V14.01,2013-03-02 16:00:00,
2013-03-02 11:52:00,38.9,27.8,29.92,South,170,3.0,3.0,64,2.00,,OVC,0.00,VWS V14.01,2013-03-02 16:52:00,
2013-03-02 11:57:00,38.5,27.4,29.91,WNW,298,3.0,7.0,64,2.00,,OVC,0.00,VWS V14.01,2013-03-02 16:57:00,
2013-03-02 12:00:00,38.6,26.7,29.92,NW,316,3.0,7.0,62,2.00,,OVC,0.00,VWS V14.01,2013-03-02 17:00:00,
2013-03-02 12:02:00,38.5,27.0,29.91,NE,38,4.0,9.0,63,0.00,,OVC,0.00,VWS V14.01,2013-03-02 17:02:00,
2013-03-02 12:07:00,39.0,28.2,29.91,North,360,2.0,9.0,65,0.00,,OVC,0.00,VWS V14.01,2013-03-02 17:07:00,
2013-03-02 12:12:00,38.6,26.7,29.91,WNW,284,0.0,12.0,62,0.00,,OVC,0.00,VWS V14.01,2013-03-02 17:12:00,
2013-03-02 12:17:00,38.0,25.4,29.91,WNW,287,0.0,12.0,60,0.00,,OVC,0.00,VWS V14.01,2013-03-02 17:17:00,
2013-03-02 12:22:00,38.1,25.9,29.91,NW,306,0.0,12.0,61,0.00,,OVC,0.00,VWS V14.01,2013-03-02 17:22:00,
2013-03-02 12:27:00,39.0,25.9,29.91,NNW,328,2.0,12.0,59,0.00,,OVC,0.00,VWS V14.01,2013-03-02 17:27:00,
2013-03-02 12:32:00,39.0,25.1,29.91,NW,314,2.0,12.0,57,0.00,,OVC,0.00,VWS V14.01,2013-03-02 17:32:00,
2013-03-02 12:37:00,38.7,25.6,29.90,WNW,285,3.0,12.0,59,0.00,,OVC,0.00,VWS V14.01,2013-03-02 17:37:00,
2013-03-02 12:42:00,39.1,26.4,29.90,West,272,3.0,12.0,60,0.00,,OVC,0.00,VWS V14.01,2013-03-02 17:42:00,
2013-03-02 12:47:00,39.1,26.8,29.90,NW,312,3.0,12.0,61,0.00,,OVC,0.00,VWS V14.01,2013-03-02 17:47:00,
2013-03-02 12:52:00,39.5,26.4,29.90,SW,214,1.0,12.0,59,0.00,,OVC,0.00,VWS V14.01,2013-03-02 17:52:00,
2013-03-02 12:57:00,39.9,27.6,29.90,NW,312,6.0,12.0,61,0.00,,OVC,0.00,VWS V14.01,2013-03-02 17:57:00,
2013-03-02 13:00:00,39.8,25.8,29.89,NW,307,4.0,12.0,57,0.00,,OVC,0.00,VWS V14.01,2013-03-02 18:00:00,
2013-03-02 13:02:00,39.9,26.3,29.89,West,275,2.0,6.0,58,0.00,,OVC,0.00,VWS V14.01,2013-03-02 18:02:00,
2013-03-02 13:07:00,40.0,25.6,29.89,WSW,242,2.0,10.0,56,0.00,,OVC,0.00,VWS V14.01,2013-03-02 18:07:00,
2013-03-02 13:12:00,39.6,26.5,29.89,West,281,4.0,12.0,59,0.00,,OVC,0.00,VWS V14.01,2013-03-02 18:12:00,
2013-03-02 13:18:00,38.9,25.0,29.88,NNW,332,0.0,12.0,57,0.00,,OVC,0.00,VWS V14.01,2013-03-02 18:18:00,
2013-03-02 13:23:00,38.3,24.0,29.88,SSW,213,4.0,12.0,56,0.00,,OVC,0.00,VWS V14.01,2013-03-02 18:23:00,
2013-03-02 13:28:00,38.0,24.1,29.89,NW,309,1.0,12.0,57,0.00,,OVC,0.00,VWS V14.01,2013-03-02 18:28:00,
2013-03-02 13:33:00,38.0,24.5,29.88,SW,229,1.0,12.0,58,0.00,,OVC,0.00,VWS V14.01,2013-03-02 18:33:00,
2013-03-02 13:38:00,38.2,23.5,29.88,NW,310,5.0,12.0,55,0.00,,OVC,0.00,VWS V14.01,2013-03-02 18:38:00,
2013-03-02 13:43:00,38.3,24.0,29.88,SW,214,1.0,12.0,56,0.00,,OVC,0.00,VWS V14.01,2013-03-02 18:43:00,
2013-03-02 13:48:00,38.3,24.0,29.88,ENE,75,0.0,12.0,56,0.00,,OVC,0.00,VWS V14.01,2013-03-02 18:48:00,
2013-03-02 13:53:00,38.4,23.7,29.88,WNW,288,1.0,12.0,55,0.00,,OVC,0.00,VWS V14.01,2013-03-02 18:53:00,
2013-03-02 13:58:00,38.3,23.6,29.88,NNW,346,0.0,12.0,55,0.00,,OVC,0.00,VWS V14.01,2013-03-02 18:58:00,
2013-03-02 14:00:00,38.3,24.0,29.88,NNW,348,0.0,12.0,56,0.00,,OVC,0.00,VWS V14.01,2013-03-02 19:00:00,
2013-03-02 14:03:00,38.3,24.0,29.88,SSW,207,0.0,6.0,56,0.00,,OVC,0.00,VWS V14.01,2013-03-02 19:03:00,
2013-03-02 14:08:00,38.2,23.5,29.88,WSW,252,0.0,6.0,55,0.00,,OVC,0.00,VWS V14.01,2013-03-02 19:08:00,
2013-03-02 14:13:00,38.3,23.6,29.88,South,176,1.0,7.0,55,0.00,,OVC,0.00,VWS V14.01,2013-03-02 19:13:00,
2013-03-02 14:18:00,38.4,24.5,29.88,North,5,3.0,7.0,57,0.00,,OVC,0.00,VWS V14.01,2013-03-02 19:18:00,
2013-03-02 14:23:00,38.7,23.5,29.88,WNW,294,5.0,10.0,54,0.00,,OVC,0.00,VWS V14.01,2013-03-02 19:23:00,
2013-03-02 14:28:00,38.4,23.2,29.88,NE,44,5.0,13.0,54,0.00,,OVC,0.00,VWS V14.01,2013-03-02 19:28:00,
2013-03-02 14:33:00,38.2,23.9,29.88,North,353,0.0,13.0,56,0.00,,OVC,0.00,VWS V14.01,2013-03-02 19:33:00,
2013-03-02 14:38:00,38.3,23.1,29.88,NNW,336,3.0,13.0,54,0.00,,OVC,0.00,VWS V14.01,2013-03-02 19:38:00,
2013-03-02 14:43:00,38.5,23.3,29.88,NNE,14,2.0,13.0,54,0.00,,OVC,0.00,VWS V14.01,2013-03-02 19:43:00,
2013-03-02 14:48:00,38.5,23.3,29.87,NE,41,2.0,13.0,54,0.00,,OVC,0.00,VWS V14.01,2013-03-02 19:48:00,
2013-03-02 14:53:00,38.4,22.8,29.88,NW,305,1.0,13.0,53,0.00,,OVC,0.00,VWS V14.01,2013-03-02 19:53:00,
2013-03-02 14:59:00,38.6,23.0,29.87,SSW,212,1.0,13.0,53,0.00,,OVC,0.00,VWS V14.01,2013-03-02 19:59:00,
2013-03-02 15:00:00,38.6,22.5,29.87,ESE,123,1.0,13.0,52,0.00,,OVC,0.00,VWS V14.01,2013-03-02 20:00:00,
2013-03-02 15:04:00,38.6,22.0,29.87,NE,52,2.0,8.0,51,0.00,,OVC,0.00,VWS V14.01,2013-03-02 20:04:00,
2013-03-02 15:09:00,38.6,23.8,29.87,WSW,238,7.0,8.0,55,0.00,,OVC,0.00,VWS V14.01,2013-03-02 20:09:00,
2013-03-02 15:14:00,38.7,22.6,29.87,West,281,0.0,10.0,52,0.00,,OVC,0.00,VWS V14.01,2013-03-02 20:14:00,
2013-03-02 15:19:00,38.8,21.8,29.87,South,188,4.0,10.0,50,0.00,,OVC,0.00,VWS V14.01,2013-03-02 20:19:00,
2013-03-02 15:24:00,38.7,22.6,29.87,West,273,1.0,10.0,52,0.00,,OVC,0.00,VWS V14.01,2013-03-02 20:24:00,
2013-03-02 15:29:00,39.0,22.4,29.87,SW,225,2.0,10.0,51,0.00,,OVC,0.00,VWS V14.01,2013-03-02 20:29:00,
2013-03-02 15:34:00,39.5,22.4,29.87,North,350,0.0,10.0,50,0.00,,OVC,0.00,VWS V14.01,2013-03-02 20:34:00,
2013-03-02 15:39:00,40.0,22.9,29.88,WNW,300,3.0,10.0,50,0.00,,OVC,0.00,VWS V14.01,2013-03-02 20:39:00,
2013-03-02 15:44:00,39.5,21.9,29.88,SW,233,4.0,10.0,49,0.00,,OVC,0.00,VWS V14.01,2013-03-02 20:44:00,
2013-03-02 15:49:00,38.8,21.8,29.88,WSW,244,2.0,10.0,50,0.00,,OVC,0.00,VWS V14.01,2013-03-02 20:49:00,
2013-03-02 15:54:00,38.3,21.3,29.88,SSW,202,2.0,10.0,50,0.00,,OVC,0.00,VWS V14.01,2013-03-02 20:54:00,
2013-03-02 15:59:00,38.0,22.9,29.88,ENE,76,1.0,10.0,54,0.00,,OVC,0.00,VWS V14.01,2013-03-02 20:59:00,
2013-03-02 16:00:00,38.0,23.3,29.88,North,9,2.0,10.0,55,0.00,,OVC,0.00,VWS V14.01,2013-03-02 21:00:00,
2013-03-02 16:04:00,37.5,24.5,29.88,SSW,202,2.0,8.0,59,0.00,,OVC,0.00,VWS V14.01,2013-03-02 21:04:00,
2013-03-02 16:09:00,37.1,25.3,29.89,SE,129,2.0,8.0,62,0.00,,OVC,0.00,VWS V14.01,2013-03-02 21:09:00,
2013-03-02 16:14:00,36.5,25.5,29.89,South,178,1.0,11.0,64,0.00,,OVC,0.00,VWS V14.01,2013-03-02 21:14:00,
2013-03-02 16:19:00,36.0,25.4,29.89,NNE,15,3.0,11.0,65,0.00,,OVC,0.00,VWS V14.01,2013-03-02 21:19:00,
2013-03-02 16:24:00,35.7,25.5,29.89,SSW,192,1.0,11.0,66,0.00,,OVC,0.00,VWS V14.01,2013-03-02 21:24:00,
2013-03-02 16:29:00,35.6,25.7,29.89,WSW,250,8.0,12.0,67,0.00,,OVC,0.00,VWS V14.01,2013-03-02 21:29:00,
2013-03-02 16:34:00,35.5,25.3,29.89,NE,46,2.0,12.0,66,0.00,,OVC,0.00,VWS V14.01,2013-03-02 21:34:00,
2013-03-02 16:39:00,35.6,25.4,29.89,SE,140,2.0,12.0,66,0.00,,OVC,0.00,VWS V14.01,2013-03-02 21:39:00,
2013-03-02 16:45:00,35.5,25.3,29.89,SW,223,10.0,15.0,66,0.00,,OVC,0.00,VWS V14.01,2013-03-02 21:45:00,
2013-03-02 16:50:00,35.3,25.5,29.90,SSW,205,1.0,15.0,67,0.00,,OVC,0.00,VWS V14.01,2013-03-02 21:50:00,
2013-03-02 16:55:00,35.2,25.4,29.90,NW,314,5.0,15.0,67,0.00,,OVC,0.00,VWS V14.01,2013-03-02 21:55:00,
2013-03-02 17:00:00,35.0,25.5,29.90,WSW,243,3.0,3.0,68,0.00,,OVC,0.00,VWS V14.01,2013-03-02 22:00:00,
2013-03-02 17:05:00,34.9,25.4,29.90,West,278,2.0,9.0,68,0.00,,OVC,0.00,VWS V14.01,2013-03-02 22:05:00,
2013-03-02 17:10:00,34.8,25.7,29.90,NW,306,3.0,9.0,69,0.00,,OVC,0.00,VWS V14.01,2013-03-02 22:10:00,
2013-03-02 17:15:00,34.7,25.9,29.90,SW,235,5.0,9.0,70,0.00,,OVC,0.00,VWS V14.01,2013-03-02 22:15:00,
2013-03-02 17:20:00,34.4,26.0,29.91,SSW,211,3.0,9.0,71,0.00,,OVC,0.00,VWS V14.01,2013-03-02 22:20:00,
2013-03-02 17:25:00,34.1,26.0,29.91,WNW,296,4.0,9.0,72,0.00,,OVC,0.00,VWS V14.01,2013-03-02 22:25:00,
2013-03-02 17:30:00,33.9,25.8,29.91,WNW,302,4.0,9.0,72,0.00,,OVC,0.00,VWS V14.01,2013-03-02 22:30:00,
2013-03-02 17:35:00,33.7,26.0,29.91,North,356,3.0,9.0,73,0.00,,OVC,0.00,VWS V14.01,2013-03-02 22:35:00,
2013-03-02 17:40:00,33.4,26.0,29.91,ENE,60,2.0,17.0,74,0.00,,OVC,0.00,VWS V14.01,2013-03-02 22:40:00,
2013-03-02 17:45:00,33.2,25.8,29.91,ENE,62,3.0,17.0,74,0.00,,OVC,0.00,VWS V14.01,2013-03-02 22:45:00,
2013-03-02 17:50:00,32.9,25.2,29.91,SSW,201,5.0,17.0,73,0.00,,OVC,0.00,VWS V14.01,2013-03-02 22:50:00,
2013-03-02 17:55:00,32.8,25.1,29.92,WNW,294,10.0,17.0,73,0.00,,OVC,0.00,VWS V14.01,2013-03-02 22:55:00,
2013-03-02 18:00:00,32.6,24.9,29.91,West,278,7.0,10.0,73,0.00,,OVC,0.00,VWS V14.01,2013-03-02 23:00:00,
2013-03-02 18:05:00,32.5,24.8,29.92,NW,306,1.0,10.0,73,0.00,,OVC,0.00,VWS V14.01,2013-03-02 23:05:00,
2013-03-02 18:10:00,32.3,24.6,29.92,NNE,13,1.0,12.0,73,0.00,,OVC,0.00,VWS V14.01,2013-03-02 23:10:00,
2013-03-02 18:15:00,32.2,24.9,29.92,WNW,296,5.0,12.0,74,0.00,,OVC,0.00,VWS V14.01,2013-03-02 23:15:00,
2013-03-02 18:20:00,32.0,24.7,29.92,SE,125,1.0,12.0,74,0.00,,OVC,0.00,VWS V14.01,2013-03-02 23:20:00,
2013-03-02 18:25:00,31.9,24.6,29.92,East,99,5.0,13.0,74,0.00,,OVC,0.00,VWS V14.01,2013-03-02 23:25:00,
2013-03-02 18:30:00,31.7,24.7,29.92,SSE,161,5.0,13.0,75,0.00,,OVC,0.00,VWS V14.01,2013-03-02 23:30:00,
2013-03-02 18:35:00,31.6,24.6,29.92,ESE,105,5.0,14.0,75,0.00,,OVC,0.00,VWS V14.01,2013-03-02 23:35:00,
2013-03-02 18:40:00,31.5,24.2,29.92,NE,55,7.0,14.0,74,0.00,,OVC,0.00,VWS V14.01,2013-03-02 23:40:00,
2013-03-02 18:45:00,31.4,24.4,29.93,SSW,198,4.0,14.0,75,0.00,,OVC,0.00,VWS V14.01,2013-03-02 23:45:00,
2013-03-02 18:50:00,31.3,24.3,29.93,ESE,107,5.0,14.0,75,0.00,,OVC,0.00,VWS V14.01,2013-03-02 23:50:00,
2013-03-02 18:56:00,31.2,24.2,29.93,NE,39,3.0,14.0,75,0.00,,OVC,0.00,VWS V14.01,2013-03-02 23:56:00,
2013-03-02 19:00:00,31.1,24.1,29.93,ENE,63,0.0,14.0,75,0.00,,OVC,0.00,VWS V14.01,2013-03-03 00:00:00,
2013-03-02 19:01:00,31.1,24.4,29.93,NW,304,8.0,8.0,76,0.00,,OVC,0.00,VWS V14.01,2013-03-03 00:01:00,
2013-03-02 19:06:00,31.0,24.3,29.93,North,355,3.0,12.0,76,0.00,,OVC,0.00,VWS V14.01,2013-03-03 00:06:00,
2013-03-02 19:11:00,30.9,24.2,29.93,NNW,344,2.0,12.0,76,0.00,,OVC,0.00,VWS V14.01,2013-03-03 00:11:00,
2013-03-02 19:16:00,30.8,24.5,29.94,SSW,211,5.0,14.0,77,0.00,,OVC,0.00,VWS V14.01,2013-03-03 00:16:00,
2013-03-02 19:21:00,30.7,24.4,29.94,WNW,301,2.0,14.0,77,0.00,,OVC,0.00,VWS V14.01,2013-03-03 00:21:00,
2013-03-02 19:26:00,30.6,24.3,29.93,NW,312,0.0,14.0,77,0.00,,OVC,0.00,VWS V14.01,2013-03-03 00:26:00,
2013-03-02 19:31:00,30.5,24.2,29.94,WNW,302,4.0,14.0,77,0.00,,OVC,0.00,VWS V14.01,2013-03-03 00:31:00,
2013-03-02 19:36:00,30.3,24.0,29.94,West,279,2.0,17.0,77,0.00,,OVC,0.00,VWS V14.01,2013-03-03 00:36:00,
2013-03-02 19:41:00,30.2,24.2,29.95,ENE,67,4.0,19.0,78,0.00,,OVC,0.00,VWS V14.01,2013-03-03 00:41:00,
2013-03-02 19:46:00,30.1,24.1,29.95,SSE,163,3.0,19.0,78,0.00,,OVC,0.00,VWS V14.01,2013-03-03 00:46:00,
2013-03-02 19:51:00,29.9,23.9,29.94,South,190,0.0,19.0,78,0.00,,OVC,0.00,VWS V14.01,2013-03-03 00:51:00,
2013-03-02 20:00:00,29.8,23.8,29.95,WNW,292,5.0,19.0,78,0.00,,OVC,0.00,VWS V14.01,2013-03-03 01:00:00,
2013-03-02 21:00:00,28.7,23.0,29.96,SSW,202,4.0,22.0,79,0.00,,OVC,0.00,VWS V14.01,2013-03-03 02:00:00,
2013-03-02 22:00:00,27.6,21.6,29.97,SSW,202,2.0,12.0,78,0.00,,OVC,0.00,VWS V14.01,2013-03-03 03:00:00,
2013-03-02 23:00:00,26.5,21.2,29.95,SSW,202,3.0,15.0,80,0.00,,OVC,0.00,VWS V14.01,2013-03-03 04:00:00,